Eindhoven, Netherlands

9:07 AM CEST on September 20, 2017 (GMT +0200)
Eindhoven Air Base

Weather History for EHEH - April, 2014

Change the Weather History Date:

Tuesday, April 1, 2014

  Actual Average Record
Temperature  
Mean Temperature 58 °F -  
Max Temperature 70 °F 57 °F 70 °F (2014)
Min Temperature 46 °F 39 °F 23 °F (2013)
Degree Days  
Heating Degree Days 7    
Growing Degree Days 8 (Base 50)    
Moisture  
Dew Point 46 °F    
Average Humidity 61    
Maximum Humidity 87    
Minimum Humidity 30    
Precipitation  
Precipitation 0.00 in - - ()
Sea Level Pressure  
Sea Level Pressure 29.84 in    
Wind  
Wind Speed 4 mph ()    
Max Wind Speed 8 mph    
Max Gust Speed -    
Visibility 6.4 miles    
Events      
Averages and records for this station are not official NWS values.
T = Trace of Precipitation, MM = Missing Value Source: Averaged Metar Reports

Daily Weather History Graph

Daily Weather History Graph

Search for Another Location

Airport or City:

Trip Planner

Search our weather history database for the weather conditions in past years. The results will help you decide how hot, cold, wet, or windy it might be!

Date:

Astronomy

Apr. 01, 2014 Rise Set
Actual Time 7:14 AM CEST 8:11 PM CEST
Civil Twilight 6:40 AM CEST 8:45 PM CEST
Nautical Twilight 5:59 AM CEST 9:26 PM CEST
Astronomical Twilight 5:16 AM CEST 10:10 PM CEST
Moon 7:54 AM CEST (4/1) 10:32 PM CEST (4/1)
Length of Visible Light 14h 04m
Length of Day
12h 57m
Waxing Crescent, 3% of the Moon is Illuminated
Apr 1
Waxing Crescent
Apr 7
First Quarter
Apr 15
Full
Apr 22
Last Quarter
Apr 29
New

Hourly Weather History & Observations

Time (CEST) Temp. Dew Point Humidity Pressure Visibility Wind Dir Wind Speed Gust Speed Precip Events Conditions
12:00 AM 57 °F 45 °F 53% 29.90 in 7 mi ENE 2.2 mph - -   Mostly Cloudy
12:25 AM 57.2 °F 42.8 °F 59% 29.89 in 6.2 mi East 3.5 mph - N/A   Overcast
12:55 AM 57.2 °F 42.8 °F 59% 29.86 in 6.2 mi East 4.6 mph - N/A   Overcast
1:00 AM 58 °F 42 °F 45% 29.88 in 6 mi East 4.5 mph - -   Overcast
1:25 AM 59.0 °F 42.8 °F 55% 29.86 in 6.2 mi East 4.6 mph - N/A   Mostly Cloudy
1:55 AM 55.4 °F 42.8 °F 63% 29.86 in 6.2 mi East 1.2 mph - N/A   Mostly Cloudy
2:00 AM 56 °F 42 °F 48% 29.88 in 6 mi SE 2.2 mph - -   Partly Cloudy
2:25 AM 53.6 °F 42.8 °F 67% 29.86 in 5.6 mi SSE 1.2 mph - N/A   Haze
2:55 AM 48.2 °F 42.8 °F 82% 29.86 in 5.0 mi SW 3.5 mph - N/A   Haze
3:00 AM 48 °F 43 °F 77% 29.87 in 5 mi SW 4.5 mph - -   Light Haze
3:25 AM 48.2 °F 42.8 °F 82% 29.86 in 5.0 mi SW 3.5 mph - N/A   Haze
3:55 AM 48.2 °F 42.8 °F 82% 29.86 in 5.0 mi SSE 1.2 mph - N/A   Haze
4:00 AM 48 °F 43 °F 75% 29.87 in 5 mi SSE 2.2 mph - -   Light Haze
4:25 AM 48.2 °F 42.8 °F 82% 29.86 in 5.0 mi SSW 2.3 mph - N/A   Haze
4:55 AM 48.2 °F 42.8 °F 82% 29.86 in 5.0 mi SSW 3.5 mph - N/A   Haze
5:00 AM 49 °F 42 °F 71% 29.86 in 6 mi SSW 4.5 mph - -   Light Haze
5:25 AM 48.2 °F 41.0 °F 76% 29.86 in 6.2 mi SSW 5.8 mph - N/A   Unknown
5:55 AM 48.2 °F 42.8 °F 82% 29.86 in 6.2 mi SSW 5.8 mph - N/A   Unknown
6:00 AM 49 °F 43 °F 71% 29.87 in 7 mi SW 4.5 mph - -  
6:05 AM 50.0 °F 42.8 °F 76% 29.86 in 6.2 mi SW 5.8 mph - N/A   Unknown
6:25 AM 50.0 °F 42.8 °F 76% 29.86 in 6.2 mi SSW 4.6 mph - N/A   Scattered Clouds
6:55 AM 48.2 °F 42.8 °F 82% 29.86 in 6.2 mi SSW 5.8 mph - N/A   Unknown
7:00 AM 49 °F 42 °F 69% 29.86 in 7 mi SSW 6.7 mph - -  
7:25 AM 48.2 °F 42.8 °F 82% 29.86 in 6.2 mi SSW 5.8 mph - N/A   Unknown
7:55 AM 50.0 °F 42.8 °F 76% 29.86 in 6.2 mi SSW 5.8 mph - N/A   Mostly Cloudy
8:00 AM 51 °F 44 °F 71% 29.87 in 7 mi SSW 6.7 mph - -   Partly Cloudy
8:25 AM 51.8 °F 44.6 °F 76% 29.86 in 6.2 mi SSW 5.8 mph - N/A   Scattered Clouds
8:55 AM 55.4 °F 46.4 °F 72% 29.86 in 6.2 mi SW 6.9 mph - N/A   Partly Cloudy
9:00 AM 55 °F 47 °F 65% 29.88 in 7 mi SSW 6.7 mph - -   Scattered Clouds
9:25 AM 57.2 °F 48.2 °F 72% 29.86 in 6.2 mi SW 5.8 mph - N/A   Partly Cloudy
9:55 AM 60.8 °F 48.2 °F 63% 29.86 in 5.6 mi SW 4.6 mph - N/A   Haze
10:00 AM 60 °F 47 °F 53% 29.88 in 6 mi SW 6.7 mph - -   Light Haze
10:25 AM 60.8 °F 48.2 °F 63% 29.86 in 5.6 mi WSW 4.6 mph - N/A   Haze
10:55 AM 60.8 °F 48.2 °F 63% 29.86 in 5.0 mi West 6.9 mph - N/A   Haze
11:00 AM 62 °F 48 °F 51% 29.88 in 6 mi WSW 6.7 mph - -   Light Haze
11:25 AM 62.6 °F 48.2 °F 59% 29.86 in 5.6 mi WSW 6.9 mph - N/A   Haze
11:55 AM 64.4 °F 48.2 °F 56% 29.86 in 6.2 mi SW 6.9 mph - N/A   Unknown
12:00 PM 65 °F 47 °F 41% 29.88 in 6 mi WSW 6.7 mph - -   Light Haze
12:25 PM 66.2 °F 48.2 °F 52% 29.86 in 6.2 mi SW 6.9 mph - N/A   Scattered Clouds
12:55 PM 68.0 °F 46.4 °F 46% 29.86 in 6.2 mi SW 8.1 mph - N/A   Scattered Clouds
1:00 PM 67 °F 47 °F 37% 29.87 in 9 mi WSW 6.7 mph - -   Scattered Clouds
1:25 PM 68.0 °F 46.4 °F 46% 29.86 in 6.2 mi WSW 5.8 mph - N/A   Mostly Cloudy
1:55 PM 68.0 °F 48.2 °F 49% 29.86 in 6.2 mi NW 8.1 mph - N/A   Partly Cloudy
2:00 PM 68 °F 47 °F 37% 29.86 in 7 mi West 6.7 mph - -   Partly Cloudy
2:00 PM 68.0 °F 48.2 °F 49% 29.86 in 6.2 mi WNW 6.9 mph - N/A   Partly Cloudy
2:25 PM 69.8 °F 48.2 °F 46% 29.83 in 6.2 mi WSW 4.6 mph - N/A   Partly Cloudy
2:55 PM 69.8 °F 48.2 °F 46% 29.83 in 6.2 mi SW 3.5 mph - N/A   Mostly Cloudy
3:00 PM 69 °F 46 °F 32% 29.85 in 10 mi West 4.5 mph - -   Mostly Cloudy
3:25 PM 69.8 °F 46.4 °F 43% 29.83 in 6.2 mi SW 5.8 mph - N/A   Partly Cloudy
3:55 PM 69.8 °F 46.4 °F 43% 29.83 in 6.2 mi WSW 4.6 mph - N/A   Partly Cloudy
4:00 PM 70 °F 46 °F 32% 29.84 in 8 mi West 4.5 mph - -   Scattered Clouds
4:25 PM 69.8 °F 46.4 °F 43% 29.83 in 6.2 mi NW 4.6 mph - N/A   Mostly Cloudy
4:55 PM 69.8 °F 46.4 °F 43% 29.80 in 6.2 mi WNW 4.6 mph - N/A   Unknown
5:00 PM 70 °F 45 °F 30% 29.83 in 9 mi West 2.2 mph - -   Scattered Clouds
5:02 PM 69.8 °F 46.4 °F 43% 29.80 in 6.2 mi West 2.3 mph - N/A   Partly Cloudy
5:25 PM 69.8 °F 46.4 °F 43% 29.80 in 6.2 mi South 2.3 mph - N/A   Scattered Clouds
5:55 PM 68.0 °F 46.4 °F 46% 29.80 in 6.2 mi NW 4.6 mph - N/A   Mostly Cloudy
6:00 PM 68 °F 48 °F 38% 29.82 in 9 mi WNW 4.5 mph - -   Mostly Cloudy
6:25 PM 68.0 °F 46.4 °F 46% 29.80 in 6.2 mi NW 4.6 mph - N/A   Partly Cloudy
6:55 PM 68.0 °F 48.2 °F 49% 29.80 in 6.2 mi NNW 5.8 mph - N/A   Unknown
7:00 PM 67 °F 48 °F 40% 29.82 in 9 mi North 4.5 mph - -   Scattered Clouds
7:25 PM 64.4 °F 50.0 °F 59% 29.80 in 6.2 mi North 6.9 mph - N/A   Partly Cloudy
7:55 PM 62.6 °F 48.2 °F 59% 29.80 in 6.2 mi North 3.5 mph - N/A   Unknown
8:00 PM 61 °F 48 °F 52% 29.82 in 9 mi North 4.5 mph - -   Partly Cloudy
8:25 PM 60.8 °F 48.2 °F 63% 29.80 in 6.2 mi North 4.6 mph - N/A   Unknown
8:55 PM 57.2 °F 46.4 °F 67% 29.80 in 6.2 mi North 3.5 mph - N/A   Partly Cloudy
9:00 PM 58 °F 47 °F 58% 29.83 in 8 mi North 2.2 mph - -  
9:25 PM 55.4 °F 48.2 °F 77% 29.80 in 6.2 mi North 2.3 mph - N/A   Unknown
9:55 PM 53.6 °F 46.4 °F 77% 29.80 in 6.2 mi North 2.3 mph - N/A   Unknown
10:00 PM 54 °F 47 °F 70% 29.83 in 9 mi NNE 2.2 mph - -   Scattered Clouds
10:25 PM 53.6 °F 46.4 °F 77% 29.80 in 6.2 mi NNE 3.5 mph - N/A   Unknown
10:55 PM 53.6 °F 48.2 °F 82% 29.80 in 6.2 mi North 1.2 mph - N/A   Unknown
10:57 PM 53.6 °F 48.2 °F 82% 29.80 in 6.2 mi North 2.3 mph - N/A   Unknown
11:00 PM 53 °F 47 °F 75% 29.83 in 7 mi North 2.2 mph - -  
11:25 PM 51.8 °F 46.4 °F 82% 29.80 in 6.2 mi NNE 2.3 mph - N/A   Unknown
11:55 PM 50.0 °F 46.4 °F 87% 29.80 in 5.6 mi North 1.2 mph - N/A   Mist